Regional Weather Roundup
Issued by NWS

Home | Current Version | Previous Version | Graphics & Text | Print | Product List | Glossary On
Versions: 1 2 3 4 5 6 7 8 9 10 11 12 13 14 15 16 17 18 19 20 21 22 23 24 25 26 27 28 29 30 31 32 33 34 35 36 37 38 39 40 41 42 43 44 45 46 47 48 49 50
000
ASUS45 KTFX 091310
RWRMT
MONTANA REGIONAL WEATHER ROUNDUP
NATIONAL WEATHER SERVICE GREAT FALLS MT
600 AM MST TUE FEB 09 2016

NOTE: "FAIR" INDICATES FEW OR NO CLOUDS BELOW 12000 FEET WITH NO
SIGNIFICANT WEATHER AND/OR OBSTRUCTIONS TO VISIBILITY.

MTZ001>007-043-091400-
WEST OF THE DIVIDE

CITY           SKY/WX    TMP DP  RH WIND       PRES   REMARKS
KALISPELL      CLEAR     18  17  96 CALM      30.52S
MISSOULA       CLEAR     23  20  88 CALM      30.54S
BUTTE          FOG       12  10  92 CALM      30.49R VSB 1/4
MULLAN PASS    CLEAR     36  30  79 S7        30.46S WCI  30
ANACONDA         N/A     27  25  93 CALM      30.49R
DEER LODGE       N/A     27  25  93 W5        30.50S
HAMILTON         N/A     27  25  93 CALM      30.51S
LIBBY            N/A     19  18  93 CALM      30.53S
PLAINS           N/A     25  21  84 CALM      30.50S VSB 0
$$

MTZ008-052>055-091400-
SOUTHWEST MONTANA

CITY           SKY/WX    TMP DP  RH WIND       PRES   REMARKS
BOZEMAN        CLOUDY    20  18  92 SW5       30.46S
DILLON         CLOUDY    30  23  75 SW14      30.47S WCI  19
ENNIS          CLEAR     28  23  80 SE7G14    30.53R WCI  21
TWIN BRIDGES     N/A     23  16  75 SE7       30.41R WCI  15
$$

MTZ009-010-012-014-046-048-049-054-091400-
EAST SLOPES AND CENTRAL MONTANA

CITY           SKY/WX    TMP DP  RH WIND       PRES   REMARKS
CUT BANK       CLEAR     38  28  67 W9        30.29S WCI  31
GREAT FALLS    CLEAR     40  28  62 SW14      30.31S
MALMSTROM AFB  CLEAR     39  29  68 SW15      30.31S WCI  30
HELENA         CLOUDY    30  26  85 W5        30.43S
CHOTEAU          N/A     45  23  42 S10       30.31F
CONRAD           N/A     38  26  62 SE2       30.28R
$$

MTZ011-013-016-021-045-047-050-051-091400-
NORTH CENTRAL MONTANA

CITY           SKY/WX    TMP DP  RH WIND       PRES   REMARKS
HAVRE          CLEAR     32  28  85 SW14      30.25F WCI  22
LEWISTOWN      CLEAR     33  22  63 W6        30.30F WCI  28
N BAR RANCH      N/A     45  25  45 NW14      30.28F
CHINOOK          N/A     25  23  93 CALM      30.26S
$$

MTZ017>020-022>027-061-062-091400-
NORTHEAST MONTANA

CITY           SKY/WX    TMP DP  RH WIND       PRES   REMARKS
GLASGOW        CLOUDY    31  26  82 NW5       30.24S
JORDAN           N/A     29  27  92 W7        30.25S WCI  22
SIDNEY         CLOUDY    34  21  60 NW14      30.20S WCI  24
WOLF POINT     CLOUDY    32  26  78 SW7       30.24S WCI  26
PLENTYWOOD       N/A     28  23  80 NW8       30.18F WCI  20
POPLAR           N/A     28  25  86 W7        30.22F WCI  21
SCOBEY           N/A     30  18  61 W1        30.17S
$$

MTZ028>42-056>058-091400-
SOUTHCENTRAL AND SOUTHEAST MONTANA

CITY           SKY/WX    TMP DP  RH WIND       PRES   REMARKS
BAKER          CLOUDY    31  23  72 NW7       30.21R WCI  24
BILLINGS       CLEAR     33  23  66 SW8       30.31S WCI  26
LIVINGSTON     CLOUDY    45  23  42 W17       30.39F
MILES CITY     CLOUDY    27  24  89 S3        30.26R
FORSYTH          N/A     30  27  86 W5        30.27R
LAUREL           N/A     30  13  49 SW3       30.28R
ROUNDUP          N/A     37  27  68 S6        30.16F
$$

REGIONAL REPORTS...DAKOTAS

CITY           SKY/WX    TMP DP  RH WIND       PRES   REMARKS
WILLISTON      CLOUDY    27  21  78 CALM      30.19F
MINOT          CLOUDY    26   8  46 SW7       30.21S WCI  18
DICKINSON      CLOUDY    21  16  81 S5        30.16S
BEACH          CLOUDY    32  23  69 W14       30.20F WCI  22
CROSBY           N/A     23  23 100 W8        30.20F WCI  14
TIOGA          CLOUDY    23  23 100 CALM      30.22S
WATFORD CITY   MOCLDY    25  19  80 CALM      30.19S
BISMARCK       CLOUDY    25  13  60 W3        30.26F
GRAND FORKS    CLOUDY    11   3  70 N14       30.29R WCI  -5
FARGO          CLOUDY    10   4  76 N12       30.27R WCI  -5
BUFFALO SD       N/A     28  18  66 NW8       30.12S WCI  20
RAPID CITY     PTCLDY    24  15  68 CALM      30.21F
$$

REGIONAL REPORTS...WYOMING/IDAHO/WASHINGTON

CITY           SKY/WX    TMP DP  RH WIND       PRES   REMARKS
GILLETTE       CLEAR     32  27  81 W13       30.26S WCI  22
SHERIDAN       CLEAR     41  27  56 W5        30.27S
BUFFALO WY     CLEAR     41  26  55 N3        30.28F
CODY           CLOUDY    27  18  69 NE3       30.34S
YELLOWSTONE LA   N/A     12   9  87 CALM      30.57R
IDAHO FALLS    FOG        7   3  84 N3        30.61F VSB 1/2
SALMON         CLOUDY     9   7  92 CALM      30.67R
BOISE          CLOUDY    28  24  85 SE6       30.60S WCI  22
SPOKANE        PTCLDY    32  28  85 NE8       30.46F WCI  25
$$

REGIONAL REPORTS...ALBERTA

CITY           SKY/WX    TMP DP  RH WIND       PRES   REMARKS
EDMONTON       PTCLDY    37  27  65 SW8       30.13S WCI  31
CALGARY        PTCLDY    39  21  48 VRB5      30.22S
LETHBRIDGE     CLEAR     41  28  60 W10       30.25S
MEDICINE HAT   MOCLDY    28  27  93 SW9       30.22S WCI  20
CARDSTON         N/A     48  21  34 W10G17      N/A
MILK RIVER       N/A     36  25  64 W14         N/A  WCI  27
ONEFOUR          N/A     34  27  75 NW15        N/A  WCI  24
$$

REGIONAL REPORTS...SASKATCHEWAN

CITY           SKY/WX    TMP DP  RH WIND       PRES   REMARKS
SWIFT CURRENT  CLOUDY    32  27  80 SW8       30.18F WCI  25
REGINA         CLOUDY    21  19  93 N5        30.22R
SASKATOON      CLOUDY    23  21  93 CALM      30.23S
CYPRESS HILLS    N/A     34  21  60 W3          N/A
VAL MARIE        N/A     28  27  93 S2          N/A
ROCKGLEN         N/A     32  27  80 NW9         N/A  WCI  24
ASSINIBOIA       N/A     37  30  75 W8          N/A  WCI  31
$$



USA.gov is the U.S. government's official web portal to all federal, state and local government web resources and services.